Simultaneous Nadir Overpasses (SNOs) Predictions

Prediction of SNOs between NOAA-20 and AQUA Satellite Orbit:

Table of predicted SNOs for the next 14.0 days since TLE Epoch: 11/19/2022
Index Date (NOAA-20) Time (NOAA-20) Lat,Lon (NOAA-20) SZA (NOAA-20 ) Date (AQUA) Time (AQUA) Lat,Lon (AQUA) SZA (AQUA ) Distance(km) Time Diff (sec)
1 11/19/2022 19:13:53 79.38, 147.30 111.20 11/19/2022 19:14:14 79.39, 147.43 111.15 3.04 21
2 11/19/2022 20:04:30 -79.66, -43.05 69.25 11/19/2022 20:03:33 -79.67, -42.96 69.22 1.67 57
3 11/22/2022 10:40:00 -79.45, 96.33 68.31 11/22/2022 10:40:18 -79.46, 96.39 68.34 1.43 18
4 11/22/2022 11:30:36 79.72, -94.09 111.27 11/22/2022 11:29:36 79.72, -94.06 111.31 0.77 60
5 11/25/2022 02:06:04 79.57, 45.76 112.07 11/25/2022 02:06:19 79.56, 45.64 112.08 2.51 15
6 11/25/2022 02:56:46 -79.69,-145.91 68.12 11/25/2022 02:55:42 -79.69,-145.76 68.10 3.14 64
7 11/27/2022 17:32:11 -79.60, -5.51 67.46 11/27/2022 17:32:22 -79.59, -5.63 67.44 2.42 11
8 11/27/2022 18:22:51 79.73, 162.97 112.34 11/27/2022 18:21:43 79.74, 163.08 112.37 2.38 68
9 11/30/2022 08:58:20 79.54, -57.51 113.12 11/30/2022 08:58:26 79.54, -57.50 113.11 0.24 6
10 11/30/2022 09:48:58 -79.79, 111.96 67.28 11/30/2022 09:47:46 -79.79, 111.97 67.23 0.20 72
11 12/03/2022 00:24:29 -79.54,-109.10 66.43 12/03/2022 00:24:30 -79.54,-109.01 66.45 1.91 1



Historial Predications of SNOs between NOAA-20 and AQUA
